レモン彗星

C/2020 H7 ( Lemmon )

English version
Home page
Updated on June 29, 2020

---------------------------------------------------------------------

・ プロフィール

発見日 2020年4月29日
発見光度 20.6等
発見者 G. J. Leonard (Mount Lemmon Survey)

・ 写真集

・ 軌道要素

Epoch 2020 May 31.0 TT = JDT 2459000.5
T 2020 June 3.51585 TT                                  Rudenko
q   4.4200958            (2000.0)            P               Q
z  +0.0001390      Peri.   82.77008     -0.32243690     -0.85150166
 +/-0.0000439      Node   323.52847     -0.86896079     +0.43950727
e   0.9993857      Incl.  135.92284     +0.37542189     +0.28596902
From 160 observations 2020 Apr. 29-June 23, mean residual 0".4.

・ 光度変化

        m1 = 10.5 + 5 logΔ + 10.0 log r

---------------------------------------------------------------------

軌道要素はM.P.E.C. 2020-M114に掲載されたものです。
光度グラフはComet for Windowsで作成したものです。

---------------------------------------------------------------------

Copyright(C) Seiichi Yoshida (comet@aerith.net). All rights reserved.